IU2CMQ-13 Weather Reports


time (UTC)temp
C
wind
direction
speed
KPH
gust
KPH
rain 1hr
cm
rain 24hr
cm
rain mn
cm
humidity
%
barometer
mb
20260507080339 13 140 6.4 11.3 0.00 11.10 0.03 80 1014.2
20260507075853 13 69 4.8 8.0 0.00 11.40 0.03 81 1014.0
20260507075350 13 69 3.2 6.4 0.00 11.40 0.03 81 1014.2
20260507074827 13 68 4.8 6.4 0.00 11.40 0.03 82 1014.2
20260507074324 13 68 0.0 8.0 0.00 11.40 0.03 82 1014.2
20260507073841 13 68 4.8 9.7 0.00 11.40 0.03 83 1014.1
20260507073341 12 68 6.4 9.7 0.00 11.40 0.03 82 1014.1
20260507072816 12 68 4.8 9.7 0.00 11.40 0.03 82 1014.0
20260507072315 13 70 4.8 8.0 0.00 11.40 0.03 82 1014.0
20260507071833 12 59 3.2 6.4 0.00 11.40 0.03 83 1014.1
20260507071330 12 59 1.6 9.7 0.00 11.40 0.03 83 1014.1
20260507070829 12 59 6.4 9.7 0.00 11.40 0.03 84 1013.9
20260507070328 12 62 6.4 9.7 0.00 11.40 0.03 84 1013.9
20260507065823 12 67 3.2 11.3 0.00 11.71 0.03 84 1013.9
20260507065319 12 110 4.8 11.3 0.00 11.71 0.03 83 1014.0
20260507064817 12 221 1.6 11.3 0.00 11.71 0.03 82 1013.9
20260507064315 12 157 3.2 12.9 0.00 11.71 0.03 83 1013.7
20260507063814 12 147 8.0 12.9 0.00 11.71 0.03 83 1013.8
20260507063331 12 119 8.0 12.9 0.00 11.71 0.03 83 1013.7
20260507062829 12 131 8.0 12.9 0.00 11.71 0.03 83 1013.7
20260507062327 12 110 4.8 11.3 0.00 11.71 0.03 83 1013.7
20260507061846 12 113 4.8 6.4 0.00 11.71 0.03 84 1013.8
20260507061322 12 123 3.2 4.8 0.00 11.71 0.03 84 1013.7
20260507060820 12 232 1.6 3.2 0.00 11.71 0.03 83 1013.8
20260507060315 12 232 0.0 6.4 0.00 12.29 0.03 83 1013.7
20260507055832 11 232 3.2 8.0 0.00 12.29 0.03 83 1013.7
20260507055331 11 232 6.4 14.5 0.00 12.29 0.03 83 1013.8
20260507054827 11 19 4.8 17.7 0.00 12.29 0.03 82 1013.7
20260507054447 11 24 12.9 20.9 0.00 12.29 0.03 82 1013.6
20260507053829 11 360 12.9 20.9 0.00 12.29 0.03 83 1013.5
20260507053349 11 298 12.9 19.3 0.00 12.29 0.03 82 1013.5
20260507052825 11 355 14.5 20.9 0.00 12.29 0.03 81 1013.4
20260507052322 11 320 12.9 24.1 0.00 12.29 0.03 81 1013.5
20260507051839 11 314 16.1 24.1 0.00 12.29 0.03 82 1013.4
20260507051359 11 316 8.0 16.1 0.00 12.29 0.03 82 1013.4
20260507050817 11 344 9.7 17.7 0.00 12.29 0.03 82 1013.4
20260507050316 11 46 12.9 17.7 0.00 13.11 0.03 82 1013.3
20260507045842 11 18 8.0 19.3 0.00 13.11 0.03 82 1013.2
20260507045336 12 355 14.5 19.3 0.00 13.11 0.03 81 1013.2
20260507044853 12 19 8.0 22.5 0.00 13.11 0.03 81 1013.2
20260507044330 12 297 12.9 24.1 0.00 13.11 0.03 80 1013.1
20260507043828 11 292 12.9 27.4 0.00 13.11 0.03 80 1013.0
20260507043348 11 280 11.3 22.5 0.00 13.11 0.03 83 1013.0
20260507042828 11 286 12.9 19.3 0.00 13.11 0.03 84 1013.0
20260507042327 11 19 8.0 14.5 0.00 13.11 0.03 86 1013.0
20260507041842 11 308 6.4 17.7 0.00 13.11 0.03 86 1013.0
20260507041338 11 302 6.4 19.3 0.00 13.11 0.03 85 1012.9
20260507040857 11 16 9.7 19.3 0.00 13.11 0.03 85 1013.0
20260507040337 11 9 6.4 16.1 0.00 13.11 0.03 86 1012.8
20260507035814 11 44 4.8 9.7 0.00 13.11 0.03 86 1012.8
20260507035333 11 43 1.6 4.8 0.00 13.11 0.03 87 1012.9
20260507034831 11 43 3.2 6.4 0.00 13.11 0.03 87 1012.8
20260507034327 11 43 4.8 6.4 0.00 13.11 0.03 87 1012.8
20260507033827 11 17 0.0 0.0 0.00 13.11 0.03 86 1012.8
20260507033327 11 17 0.0 0.0 0.00 13.11 0.03 86 1012.9
20260507032826 11 17 0.0 12.9 0.00 13.11 0.03 85 1012.9
20260507032323 11 17 3.2 12.9 0.00 13.11 0.03 85 1012.8
20260507031820 11 20 4.8 9.7 0.00 13.11 0.03 85 1012.9
20260507031338 11 360 4.8 12.9 0.00 13.11 0.03 85 1012.8
20260507030839 11 304 6.4 12.9 0.00 13.11 0.03 86 1012.8
20260507030338 11 27 4.8 9.7 0.00 13.21 0.03 87 1012.8
20260507025817 10 32 6.4 9.7 0.00 13.21 0.03 88 1012.7
20260507025315 11 306 3.2 4.8 0.00 13.21 0.03 88 1012.9
20260507024832 11 306 3.2 4.8 0.00 13.21 0.03 88 1012.8
20260507024330 11 306 0.0 3.2 0.00 13.21 0.03 88 1012.7
20260507023829 11 306 0.0 3.2 0.00 13.21 0.03 87 1012.7
20260507023325 11 306 0.0 3.2 0.00 13.21 0.03 86 1012.5
20260507022824 11 306 0.0 6.4 0.00 13.21 0.03 86 1012.6
20260507022344 11 306 3.2 6.4 0.00 13.21 0.03 85 1012.6
20260507021821 11 329 3.2 8.0 0.00 13.21 0.03 84 1012.5
20260507021320 11 263 4.8 14.5 0.00 13.21 0.03 83 1012.5
20260507020818 11 329 4.8 22.5 0.00 13.21 0.03 83 1012.6
20260507020316 11 5 12.9 22.5 0.00 13.31 0.03 82 1012.4
20260507015814 11 294 9.7 27.4 0.00 13.31 0.03 83 1012.4
20260507015333 11 271 9.7 20.9 0.00 13.31 0.03 83 1012.4
20260507014824 11 327 8.0 14.5 0.00 13.31 0.03 84 1012.3
20260507014321 11 336 4.8 11.3 0.00 13.31 0.03 86 1012.4
20260507013821 11 313 6.4 9.7 0.00 13.31 0.03 87 1012.5
20260507013320 11 286 8.0 11.3 0.00 13.31 0.03 87 1012.5
20260507012817 11 260 9.7 11.3 0.00 13.31 0.03 88 1012.6
20260507012315 10 265 3.2 8.0 0.00 13.31 0.03 88 1012.5
20260507011833 10 252 4.8 9.7 0.00 13.31 0.03 88 1012.4
20260507011330 10 63 1.6 4.8 0.10 13.31 0.03 87 1012.5
20260507010848 11 277 0.0 11.3 0.10 13.31 0.03 87 1012.4
20260507010325 11 277 8.0 11.3 0.10 13.31 0.03 86 1012.5
20260507005823 11 292 6.4 8.0 0.10 13.41 0.03 85 1012.5
20260507005342 11 14 4.8 9.7 0.10 13.41 0.03 83 1012.6
20260507004839 11 300 4.8 16.1 0.10 13.41 0.03 83 1012.6
20260507004357 11 327 8.0 16.1 0.10 13.41 0.03 83 1012.5
20260507003855 11 337 6.4 20.9 0.10 13.41 0.03 84 1012.6
20260507003352 11 340 11.3 20.9 0.10 13.41 0.03 84 1012.6
20260507002829 11 328 9.7 17.7 0.10 13.41 0.03 85 1012.6
20260507002325 11 300 6.4 14.5 0.10 13.41 0.03 86 1012.8
20260507001824 11 313 1.6 6.4 0.10 13.41 0.03 87 1012.8
20260507001341 11 312 3.2 14.5 0.00 13.31 0.00 87 1012.8
20260507000819 11 26 3.2 9.7 0.00 13.31 0.00 87 1012.7
20260507000336 11 321 1.6 12.9 0.00 13.31 0.00 86 1012.8
20260506235837 11 303 4.8 12.9 0.00 13.31 0.00 86 1012.7
20260506235334 11 346 3.2 12.9 0.00 13.31 0.00 86 1012.7
20260506234832 11 265 9.7 19.3 0.00 13.31 0.00 86 1012.6
20260506234330 11 339 11.3 19.3 0.00 13.31 0.00 84 1012.6
20260506233827 11 285 11.3 22.5 0.00 13.31 0.00 83 1012.5
20260506233324 11 22 12.9 20.9 0.00 13.31 0.00 82 1012.6
20260506232822 11 335 11.3 20.9 0.00 13.31 0.00 82 1012.6
20260506232320 11 291 14.5 20.9 0.00 13.31 0.00 82 1012.6
20260506231820 11 245 11.3 25.7 0.00 13.31 0.00 82 1012.7
20260506231335 11 256 16.1 25.7 0.00 13.31 0.00 83 1012.7
20260506230832 11 288 9.7 24.1 0.00 13.31 0.00 84 1012.5
20260506230350 11 245 9.7 12.9 0.00 13.31 0.00 86 1012.5
20260506225827 11 209 6.4 8.0 0.00 13.79 0.00 85 1012.5
20260506225324 11 341 4.8 8.0 0.00 13.79 0.00 85 1012.5
20260506224823 11 267 1.6 12.9 0.00 13.79 0.00 85 1012.6
20260506224318 11 246 6.4 17.7 0.00 13.79 0.00 84 1012.6
20260506223837 11 269 12.9 20.9 0.00 13.79 0.00 83 1012.5
20260506223315 11 319 12.9 29.0 0.00 13.79 0.00 82 1012.4
20260506222833 11 305 11.3 29.0 0.00 13.79 0.00 81 1012.5
20260506222330 11 326 16.1 29.0 0.00 13.79 0.00 80 1012.6
20260506221827 11 312 14.5 22.5 0.00 13.79 0.00 81 1012.7
20260506221322 11 5 9.7 19.3 0.00 13.79 0.00 83 1012.8
20260506220840 11 32 12.9 17.7 0.00 13.79 0.00 84 1012.7
20260506220337 11 313 8.0 22.5 0.00 13.79 0.00 83 1012.7
20260506215826 11 29 12.9 22.5 0.00 14.10 3.51 83 1012.7
20260506215343 11 13 14.5 19.3 0.00 14.10 3.51 82 1012.8
20260506214820 11 330 6.4 17.7 0.00 14.10 3.51 81 1012.8
20260506214318 11 327 11.3 24.1 0.00 14.10 3.51 80 1012.7
20260506213844 12 349 6.4 24.1 0.00 14.10 3.51 80 1012.6
20260506213321 12 303 9.7 22.5 0.00 14.10 3.51 80 1012.7
20260506212820 12 334 11.3 20.9 0.00 14.10 3.51 79 1012.6
20260506212319 12 19 11.3 17.7 0.00 14.10 3.51 79 1012.7
20260506211819 12 19 8.0 19.3 0.00 14.10 3.51 79 1012.7
20260506211336 12 5 9.7 19.3 0.00 14.10 3.51 78 1012.7
20260506210853 12 318 8.0 17.7 0.00 14.10 3.51 78 1012.6
20260506210351 12 350 8.0 20.9 0.00 14.10 3.51 79 1012.5
20260506205828 12 355 9.7 20.9 0.00 14.10 3.51 82 1012.7
20260506205325 11 351 3.2 17.7 0.00 14.10 3.51 83 1012.4
20260506204823 12 9 8.0 20.9 0.00 14.10 3.51 83 1012.6
20260506204347 12 269 16.1 22.5 0.00 14.10 3.51 83 1012.7
20260506203824 12 306 9.7 24.1 0.00 14.10 3.51 83 1012.6
20260506203321 11 281 14.5 24.1 0.00 14.10 3.51 84 1012.5
20260506202835 11 23 12.9 19.3 0.00 14.10 3.51 83 1012.5
20260506202350 11 355 8.0 17.7 0.00 14.10 3.51 81 1012.6
20260506201826 12 355 8.0 20.9 0.00 14.10 3.51 80 1012.5
20260506201324 12 304 12.9 19.3 0.00 14.10 3.51 79 1012.4
20260506200823 12 302 12.9 24.1 0.00 14.10 3.51 80 1012.4
20260506200320 12 286 9.7 30.6 0.00 14.10 3.51 83 1012.4
20260506195822 12 295 11.3 38.6 0.00 14.10 3.51 88 1012.3
20260506195319 12 265 24.1 38.6 0.00 14.10 3.51 89 1012.3
20260506194837 12 285 22.5 38.6 0.00 14.10 3.51 88 1012.0
20260506194340 11 290 20.9 38.6 0.00 14.10 3.51 87 1011.9
20260506193834 12 305 14.5 24.1 0.00 14.10 3.51 85 1011.6
20260506193334 12 262 11.3 22.5 0.00 14.10 3.51 84 1011.7
20260506192831 12 311 14.5 30.6 0.00 14.10 3.51 83 1011.7
20260506192325 12 306 17.7 30.6 0.00 14.10 3.51 82 1011.7
20260506191820 12 306 11.3 24.1 0.00 14.10 3.51 80 1011.6
20260506191317 12 309 8.0 24.1 0.00 14.10 3.51 81 1011.5
20260506190839 12 281 9.7 22.5 0.00 14.10 3.51 81 1011.6
20260506190335 12 305 14.5 22.5 0.00 14.10 3.51 80 1011.5
20260506185835 12 317 14.5 22.5 0.51 14.10 3.51 80 1011.4
20260506185332 12 313 14.5 27.4 0.71 14.10 3.51 80 1011.2
20260506184851 12 323 17.7 27.4 0.79 14.10 3.51 79 1011.2
20260506184326 12 355 8.0 25.7 0.99 14.10 3.51 80 1011.3
20260506183831 12 13 16.1 27.4 1.50 14.10 3.51 81 1011.1
20260506183332 12 355 16.1 30.6 3.10 14.10 3.51 81 1010.9
20260506182829 12 323 20.9 38.6 4.50 14.10 3.51 81 1011.0
20260506182329 12 336 25.7 38.6 6.60 14.10 3.51 82 1011.1
20260506181826 11 346 22.5 37.0 6.71 14.10 3.51 84 1011.0
20260506181341 11 316 14.5 32.2 6.91 14.10 3.51 85 1011.0
20260506180819 11 305 20.9 32.2 6.91 14.10 3.51 87 1010.8
20260506180317 11 325 16.1 29.0 6.81 14.00 3.48 90 1010.6
20260506175834 10 342 11.3 29.0 6.20 13.41 3.33 93 1010.8
20260506175331 10 315 4.8 19.3 6.20 13.41 3.33 92 1010.9
20260506174828 10 340 12.9 20.9 6.10 13.31 3.30 92 1010.4
20260506174324 10 349 14.5 22.5 5.79 13.00 3.23 92 1010.3
20260506174038 10 344 17.7 24.1 5.51 12.70 3.15 92 1010.1
20260506172318 11 269 20.9 35.4 0.20 7.39 1.80 86 1009.3
20260506171818 12 290 29.0 35.4 0.20 7.39 1.80 83 1009.1
20260506171315 14 294 19.3 29.0 0.00 7.19 1.75 86 1009.1
20260506170832 15 294 9.7 32.2 0.00 7.19 1.75 84 1008.6
20260506170330 15 174 8.0 30.6 0.00 7.19 1.75 82 1008.1
20260506165828 15 337 19.3 30.6 0.00 7.29 1.75 81 1007.9
20260506165347 14 26 14.5 27.4 0.00 7.29 1.75 83 1008.0
20260506164841 14 24 6.4 17.7 0.00 7.29 1.75 84 1008.1
20260506164340 14 38 11.3 17.7 0.00 7.29 1.75 84 1008.2
20260506163816 15 219 6.4 20.9 0.00 7.29 1.75 81 1008.3
20260506163334 15 310 14.5 20.9 0.00 7.29 1.75 81 1008.0
20260506162834 15 36 12.9 17.7 0.00 7.29 1.75 80 1008.0
20260506162352 15 30 11.3 16.1 0.00 7.29 1.75 78 1008.1
20260506161850 15 27 11.3 16.1 0.00 7.29 1.75 79 1008.3
20260506161328 15 50 4.8 11.3 0.00 7.29 1.75 81 1008.4
20260506160847 15 238 0.0 3.2 0.00 7.29 1.75 79 1008.5
20260506160325 15 238 1.6 6.4 0.00 7.59 1.75 80 1008.6
20260506155822 15 238 4.8 12.9 0.00 7.59 1.75 78 1008.6
20260506155322 15 351 9.7 16.1 0.00 7.59 1.75 76 1008.4
20260506154820 15 60 9.7 16.1 0.00 7.59 1.75 76 1008.3
20260506154318 15 24 4.8 16.1 0.00 7.59 1.75 76 1008.3
20260506153816 15 26 8.0 16.1 0.00 7.59 1.75 77 1008.4
20260506153333 15 47 3.2 12.9 0.00 7.59 1.75 81 1008.5
20260506152832 15 287 4.8 16.1 0.00 7.59 1.75 79 1008.6
20260506152328 15 49 8.0 17.7 0.00 7.59 1.75 78 1008.5
20260506151825 15 41 11.3 17.7 0.00 7.59 1.75 79 1008.6
20260506151349 15 17 12.9 20.9 0.00 7.59 1.75 79 1008.6
20260506150825 15 21 11.3 20.9 0.00 7.59 1.75 79 1008.7
20260506150323 15 44 9.7 16.1 0.00 7.70 1.75 80 1008.9
20260506145820 15 25 9.7 17.7 0.00 7.70 1.75 81 1008.8
20260506145318 15 103 9.7 17.7 0.00 7.70 1.75 80 1008.8
20260506144834 15 53 8.0 17.7 0.00 7.70 1.75 80 1009.0
20260506144332 14 351 9.7 16.1 0.00 7.70 1.75 81 1009.1
20260506143831 14 261 4.8 19.3 0.00 7.70 1.75 83 1009.2
20260506143328 14 44 11.3 20.9 0.00 7.70 1.75 79 1009.2
20260506142824 14 22 12.9 20.9 0.00 7.70 1.75 81 1009.4
20260506142323 14 53 11.3 17.7 0.00 7.70 1.75 82 1009.5
20260506141849 15 53 6.4 16.1 0.00 7.70 1.75 80 1009.6
20260506141322 14 22 8.0 16.1 0.00 7.70 1.75 80 1009.7
20260506140820 14 45 9.7 19.3 0.00 7.70 1.75 82 1009.7
20260506140337 13 28 12.9 19.3 0.00 7.70 1.75 81 1009.8
20260506135856 14 351 11.3 19.3 0.00 7.80 1.75 82 1009.7
20260506135332 14 69 9.7 19.3 0.00 7.80 1.75 83 1009.9
20260506134829 14 63 8.0 20.9 0.00 7.80 1.75 81 1009.9
20260506134328 14 23 9.7 20.9 0.00 7.80 1.75 80 1010.0
20260506133826 13 33 6.4 16.1 0.00 7.80 1.75 82 1010.1
20260506133319 13 5 8.0 17.7 0.00 7.80 1.75 80 1010.1
20260506132901 13 9 12.9 17.7 0.00 7.80 1.75 81 1010.1
20260506132336 13 17 8.0 20.9 0.00 7.80 1.75 82 1010.0
20260506131832 13 5 12.9 22.5 0.00 7.80 1.75 83 1010.2
20260506131330 13 22 16.1 24.1 0.00 7.80 1.75 84 1010.1
20260506130827 13 42 17.7 24.1 0.00 7.80 1.75 85 1010.2
20260506130324 12 20 16.1 24.1 0.00 8.00 1.75 86 1010.2
20260506125823 12 360 14.5 24.1 0.00 8.00 1.75 87 1010.3
20260506125340 12 24 17.7 24.1 0.00 8.00 1.75 87 1010.2
20260506124819 12 13 17.7 20.9 0.00 8.00 1.75 89 1010.1
20260506124338 12 350 9.7 20.9 0.00 8.00 1.75 89 1010.2
20260506123833 12 16 12.9 20.9 0.00 8.00 1.75 91 1010.1
20260506123331 12 32 11.3 20.9 0.00 8.00 1.75 91 1010.3
20260506122826 12 14 12.9 20.9 0.00 8.00 1.75 91 1010.3
20260506122322 12 17 6.4 19.3 0.10 8.00 1.75 92 1010.3
20260506121819 12 69 12.9 20.9 0.20 8.00 1.75 93 1010.2
20260506121316 12 44 3.2 14.5 0.20 8.00 1.75 95 1010.4
20260506120834 12 351 3.2 9.7 0.30 8.00 1.75 95 1010.4
20260506120331 12 223 3.2 9.7 0.51 8.00 1.75 95 1010.5
20260506115849 12 244 6.4 17.7 0.79 8.00 1.75 95 1010.5
20260506115326 11 35 8.0 17.7 0.89 8.00 1.75 95 1010.5
20260506114846 11 59 3.2 14.5 0.99 8.00 1.75 96 1010.6
20260506114319 11 16 8.0 14.5 1.60 8.00 1.75 96 1010.5
20260506113817 11 5 1.6 14.5 1.80 8.00 1.75 96 1010.6
20260506113317 11 74 3.2 6.4 2.31 8.00 1.75 96 1010.8
20260506112814 11 74 1.6 8.0 2.59 7.90 1.73 96 1010.8
20260506112333 11 74 3.2 8.0 2.90 7.90 1.73 96 1010.7
20260506111830 11 169 0.0 11.3 3.00 7.90 1.73 96 1010.7
20260506111328 11 252 4.8 16.1 3.00 7.80 1.70 95 1010.6
20260506110829 11 260 6.4 16.1 2.90 7.70 1.68 95 1010.6
20260506110325 11 50 6.4 16.1 2.69 7.49 1.63 95 1010.6
20260506105830 11 245 1.6 6.4 2.49 7.19 1.55 95 1010.7
20260506105327 11 136 0.0 4.8 2.49 7.11 1.52 95 1010.4
20260506104827 11 248 1.6 11.3 2.59 7.01 1.50 95 1010.8
20260506104321 11 234 9.7 11.3 2.11 6.40 1.35 95 1010.7
20260506103841 11 336 3.2 17.7 1.91 6.20 1.30 94 1010.6
20260506103338 11 148 4.8 19.3 1.40 5.69 1.17 94 1010.7
20260506102836 11 123 0.0 4.8 1.09 5.31 1.07 93 1010.7
20260506102331 11 300 0.0 6.4 0.89 5.00 0.99 93 1010.9
20260506101830 11 300 0.0 6.4 0.79 4.90 0.97 93 1010.7
20260506101329 11 325 4.8 8.0 0.71 4.80 0.94 93 1010.8
20260506100848 11 310 3.2 8.0 0.71 4.80 0.94 93 1010.9
20260506100346 11 284 6.4 11.3 0.61 4.70 0.91 93 1010.9
20260506095823 11 275 6.4 9.7 0.61 4.80 0.91 93 1010.9
20260506095318 11 293 8.0 11.3 0.41 4.60 0.86 92 1011.0
20260506094817 12 274 4.8 8.0 0.30 4.50 0.84 91 1011.0
20260506094315 12 263 3.2 9.7 0.20 4.39 0.81 89 1010.7
20260506093843 12 32 4.8 11.3 0.20 4.39 0.81 88 1010.5
20260506093320 12 15 3.2 14.5 0.20 4.39 0.81 88 1010.4
20260506092837 12 315 6.4 16.1 0.00 4.19 0.76 87 1010.6
20260506092355 12 310 8.0 24.1 0.00 4.19 0.76 86 1010.6
20260506091849 12 296 12.9 24.1 0.00 4.19 0.76 85 1010.3
20260506091345 12 298 17.7 24.1 0.10 4.19 0.76 84 1010.3
20260506090842 12 351 14.5 22.5 0.10 4.19 0.76 85 1010.3
20260506090317 12 360 14.5 22.5 0.20 4.29 0.76 86 1010.4
20260506085815 12 298 9.7 25.7 0.30 4.29 0.76 86 1010.3
20260506085331 12 308 12.9 25.7 0.30 4.29 0.76 86 1010.5
20260506084829 12 309 16.1 27.4 0.30 4.29 0.76 85 1010.5
20260506084328 12 344 11.3 27.4 0.30 4.29 0.76 86 1010.6
20260506083827 12 339 14.5 24.1 0.30 4.29 0.76 84 1010.7
20260506083327 12 306 17.7 27.4 0.30 4.29 0.76 84 1010.7
20260506082823 12 313 17.7 29.0 0.41 4.29 0.76 86 1010.7
20260506082320 12 333 16.1 29.0 0.51 4.29 0.76 88 1010.7
20260506081818 12 360 16.1 24.1 0.51 4.29 0.76 89 1010.6
20260506081313 11 326 17.7 27.4 0.41 4.19 0.74 90 1010.7
20260506080831 11 21 14.5 27.4 0.41 4.19 0.74 92 1010.8